TimeEST,TemperatureF,Dew PointF,Humidity,Sea Level PressureIn,VisibilityMPH,Wind Direction,Wind SpeedMPH,Gust SpeedMPH,PrecipitationIn,Events,Conditions,WindDirDegrees,DateUTC
12:15 AM,33.8,33.8,100,29.79,2.5,Calm,Calm,-,N/A,,Overcast,0,2013-02-14 05:15:00
12:35 AM,33.8,32.0,93,29.79,2.0,Calm,Calm,-,N/A,,Overcast,0,2013-02-14 05:35:00
12:55 AM,32.0,30.2,93,29.80,1.2,Calm,Calm,-,N/A,,Mostly Cloudy,0,2013-02-14 05:55:00
1:15 AM,32.0,30.2,93,29.81,1.8,Calm,Calm,-,N/A,,Mostly Cloudy,0,2013-02-14 06:15:00
1:35 AM,30.2,28.4,93,29.81,1.5,Calm,Calm,-,N/A,,Mostly Cloudy,0,2013-02-14 06:35:00
1:55 AM,30.2,30.2,100,29.82,1.5,Calm,Calm,-,N/A,,Mist,0,2013-02-14 06:55:00
2:15 AM,30.2,30.2,100,29.82,1.0,Calm,Calm,-,N/A,,Mist,0,2013-02-14 07:15:00
2:35 AM,30.2,28.4,93,29.83,1.8,Calm,Calm,-,N/A,,Mist,0,2013-02-14 07:35:00
2:55 AM,30.2,28.4,93,29.84,0.2,Calm,Calm,-,N/A,Fog,Light Freezing Fog,0,2013-02-14 07:55:00
3:15 AM,30.2,28.4,93,29.85,1.8,Calm,Calm,-,N/A,,Mist,0,2013-02-14 08:15:00
3:35 AM,28.4,26.6,93,29.85,0.5,Calm,Calm,-,N/A,Fog,Light Freezing Fog,0,2013-02-14 08:35:00
3:55 AM,28.4,26.6,93,29.86,0.2,Calm,Calm,-,N/A,Fog,Light Freezing Fog,0,2013-02-14 08:55:00
4:15 AM,26.6,24.8,93,29.87,1.2,Calm,Calm,-,N/A,,Mist,0,2013-02-14 09:15:00
4:35 AM,26.6,24.8,93,29.88,3.0,Calm,Calm,-,N/A,,Clear,0,2013-02-14 09:35:00
4:55 AM,26.6,26.6,100,29.89,3.0,Calm,Calm,-,N/A,,Clear,0,2013-02-14 09:55:00
5:15 AM,26.6,24.8,93,29.90,3.0,Calm,Calm,-,N/A,,Clear,0,2013-02-14 10:15:00
5:35 AM,26.6,24.8,93,29.91,3.0,Calm,Calm,-,N/A,,Clear,0,2013-02-14 10:35:00
5:55 AM,28.4,28.4,100,29.91,2.5,Calm,Calm,-,N/A,,Clear,0,2013-02-14 10:55:00
6:15 AM,26.6,24.8,93,29.92,2.5,Calm,Calm,-,N/A,,Clear,0,2013-02-14 11:15:00
6:35 AM,26.6,26.6,100,29.93,3.0,Calm,Calm,-,N/A,,Clear,0,2013-02-14 11:35:00
7:15 AM,26.6,24.8,93,29.95,0.2,Calm,Calm,-,N/A,Fog,Light Freezing Fog,0,2013-02-14 12:15:00
7:35 AM,26.6,24.8,93,29.95,0.2,Calm,Calm,-,N/A,Fog,Light Freezing Fog,0,2013-02-14 12:35:00
7:55 AM,28.4,26.6,93,29.96,2.5,Calm,Calm,-,N/A,,Clear,0,2013-02-14 12:55:00
8:15 AM,30.2,28.4,93,29.97,2.5,Calm,Calm,-,N/A,,Clear,0,2013-02-14 13:15:00
8:35 AM,30.2,30.2,100,29.98,2.0,Calm,Calm,-,N/A,,Clear,0,2013-02-14 13:35:00
8:55 AM,35.6,33.8,93,29.99,3.0,Calm,Calm,-,N/A,,Clear,0,2013-02-14 13:55:00
9:15 AM,35.6,35.6,100,29.99,7.0,Calm,Calm,-,N/A,,Clear,0,2013-02-14 14:15:00
9:35 AM,37.4,35.6,93,30.00,10.0,West,3.5,-,N/A,,Clear,280,2013-02-14 14:35:00
9:55 AM,39.2,33.8,81,30.01,10.0,Calm,Calm,-,N/A,,Clear,0,2013-02-14 14:55:00
10:15 AM,42.8,32.0,66,30.01,10.0,Calm,Calm,-,N/A,,Clear,0,2013-02-14 15:15:00
10:35 AM,42.8,32.0,66,30.01,10.0,West,3.5,-,N/A,,Clear,280,2013-02-14 15:35:00
10:55 AM,44.6,30.2,57,30.01,10.0,Calm,Calm,-,N/A,,Clear,0,2013-02-14 15:55:00
11:15 AM,44.6,30.2,57,30.01,10.0,SSE,4.6,-,N/A,,Clear,160,2013-02-14 16:15:00
11:35 AM,44.6,28.4,53,30.00,10.0,Calm,Calm,-,N/A,,Clear,0,2013-02-14 16:35:00
11:55 AM,46.4,32.0,57,30.00,10.0,WSW,4.6,-,N/A,,Clear,250,2013-02-14 16:55:00
12:15 PM,44.6,28.4,53,30.00,10.0,Calm,Calm,-,N/A,,Scattered Clouds,0,2013-02-14 17:15:00
12:35 PM,48.2,28.4,46,29.98,10.0,SW,4.6,-,N/A,,Clear,220,2013-02-14 17:35:00
12:55 PM,48.2,26.6,43,29.97,10.0,SSE,5.8,-,N/A,,Clear,160,2013-02-14 17:55:00
1:15 PM,48.2,26.6,43,29.97,10.0,SW,4.6,-,N/A,,Clear,220,2013-02-14 18:15:00
1:35 PM,48.2,26.6,43,29.96,10.0,Calm,Calm,-,N/A,,Clear,0,2013-02-14 18:35:00
1:55 PM,50.0,26.6,40,29.96,10.0,South,3.5,-,N/A,,Clear,190,2013-02-14 18:55:00
2:15 PM,51.8,26.6,38,29.96,10.0,SSE,5.8,-,N/A,,Clear,160,2013-02-14 19:15:00
2:35 PM,51.8,26.6,38,29.96,10.0,West,6.9,-,N/A,,Clear,280,2013-02-14 19:35:00
2:55 PM,51.8,26.6,38,29.95,10.0,SSW,6.9,-,N/A,,Clear,200,2013-02-14 19:55:00
3:15 PM,51.8,26.6,38,29.95,10.0,South,5.8,-,N/A,,Clear,190,2013-02-14 20:15:00
3:35 PM,51.8,26.6,38,29.95,10.0,SE,4.6,-,N/A,,Clear,130,2013-02-14 20:35:00
3:55 PM,51.8,24.8,35,29.93,10.0,Calm,Calm,-,N/A,,Clear,0,2013-02-14 20:55:00
4:15 PM,51.8,24.8,35,29.94,10.0,SSE,4.6,-,N/A,,Clear,150,2013-02-14 21:15:00
4:35 PM,51.8,24.8,35,29.95,10.0,SSE,5.8,-,N/A,,Clear,150,2013-02-14 21:35:00
4:55 PM,51.8,24.8,35,29.95,10.0,South,4.6,-,N/A,,Clear,170,2013-02-14 21:55:00
5:15 PM,50.0,24.8,37,29.95,10.0,SSW,4.6,-,N/A,,Clear,210,2013-02-14 22:15:00
5:35 PM,48.2,26.6,43,29.96,10.0,Calm,Calm,-,N/A,,Clear,0,2013-02-14 22:35:00
5:55 PM,42.8,30.2,61,29.96,10.0,Calm,Calm,-,N/A,,Clear,0,2013-02-14 22:55:00
6:15 PM,39.2,30.2,70,29.96,10.0,Calm,Calm,-,N/A,,Clear,0,2013-02-14 23:15:00
6:35 PM,35.6,28.4,75,29.96,10.0,SE,3.5,-,N/A,,Clear,140,2013-02-14 23:35:00
6:55 PM,35.6,28.4,75,29.97,10.0,SE,3.5,-,N/A,,Clear,140,2013-02-14 23:55:00
7:15 PM,33.8,26.6,75,29.97,10.0,SE,3.5,-,N/A,,Clear,140,2013-02-15 00:15:00
7:35 PM,35.6,26.6,70,29.98,10.0,Calm,Calm,-,N/A,,Clear,0,2013-02-15 00:35:00
7:55 PM,35.6,28.4,75,29.98,10.0,Calm,Calm,-,N/A,,Clear,0,2013-02-15 00:55:00
8:15 PM,35.6,26.6,70,29.98,10.0,Calm,Calm,-,N/A,,Clear,0,2013-02-15 01:15:00
8:35 PM,33.8,26.6,75,29.98,10.0,Calm,Calm,-,N/A,,Clear,0,2013-02-15 01:35:00
8:55 PM,33.8,26.6,75,29.99,10.0,Calm,Calm,-,N/A,,Clear,0,2013-02-15 01:55:00
9:15 PM,32.0,26.6,80,29.99,10.0,SSE,4.6,-,N/A,,Clear,160,2013-02-15 02:15:00
9:35 PM,37.4,28.4,70,29.99,10.0,SSE,4.6,-,N/A,,Clear,160,2013-02-15 02:35:00
9:55 PM,39.2,28.4,65,29.99,10.0,SSE,4.6,-,N/A,,Clear,160,2013-02-15 02:55:00
10:15 PM,39.2,30.2,70,29.99,10.0,South,5.8,-,N/A,,Clear,170,2013-02-15 03:15:00
10:35 PM,39.2,30.2,70,30.00,10.0,South,4.6,-,N/A,,Clear,170,2013-02-15 03:35:00
10:55 PM,39.2,30.2,70,30.01,10.0,South,4.6,-,N/A,,Clear,170,2013-02-15 03:55:00
11:15 PM,39.2,30.2,70,30.01,10.0,South,3.5,-,N/A,,Clear,180,2013-02-15 04:15:00
11:35 PM,37.4,30.2,75,30.01,10.0,South,3.5,-,N/A,,Clear,190,2013-02-15 04:35:00
11:55 PM,37.4,28.4,70,30.00,10.0,South,3.5,-,N/A,,Clear,190,2013-02-15 04:55:00